Providence, RI

5:54 AM EDT on May 26, 2017 (GMT -0400)
Green State

Weather History for KPVD - March, 2014

Change the Weather History Date:

Monday, March 10, 2014

  Actual Average Record
Temperature  
Mean Temperature 39 °F 37 °F  
Max Temperature 46 °F 46 °F 72 °F (2016)
Min Temperature 31 °F 28 °F 6 °F (1984)
Degree Days  
Heating Degree Days 26 28  
Month to date heating degree days 355 292  
Since 1 July heating degree days 4627 4354  
Cooling Degree Days 0 0  
Month to date cooling degree days 0 0  
Year to date cooling degree days 0 0  
Moisture  
Dew Point 22 °F    
Average Humidity 54    
Maximum Humidity 75    
Minimum Humidity 33    
Precipitation  
Precipitation T in 0.16 in 2.32 in (1994)
Month to date precipitation T 1.47  
Year to date precipitation 8.40 8.62  
Snow  
Snow T in 0.30 in 5.00 in (1928)
Month to date snowfall 0.1 2.5  
Since 1 July snowfall 42.2 30.2  
Snow Depth 0.00 in    
Sea Level Pressure  
Sea Level Pressure 29.79 in    
Wind  
Wind Speed 7 mph (SW)    
Max Wind Speed 15 mph    
Max Gust Speed 19 mph    
Visibility 9 miles    
Events Snow    
T = Trace of Precipitation, MM = Missing Value Source: NWS Daily Summary

Daily Weather History Graph

Daily Weather History Graph

Search for Another Location

Airport or City:

Trip Planner

Search our weather history database for the weather conditions in past years. The results will help you decide how hot, cold, wet, or windy it might be!

Date:

Astronomy

Mar. 10, 2014 Rise Set
Actual Time 7:05 AM EDT 6:46 PM EDT
Civil Twilight 6:38 AM EDT 7:14 PM EDT
Nautical Twilight 6:06 AM EDT 7:46 PM EDT
Astronomical Twilight 5:33 AM EDT 8:19 PM EDT
Moon 1:24 PM EDT (3/10) 3:18 AM EDT (3/10)
Length of Visible Light 12h 36m
Length of Day
11h 40m
Waxing Gibbous, 70% of the Moon is Illuminated
Mar 10
Waxing Gibbous
Mar 16
Full
Mar 23
Last Quarter
Mar 30
New
Apr 7
First Quarter

Hourly Weather History & Observations

Time (EDT) Temp. Windchill Dew Point Humidity Pressure Visibility Wind Dir Wind Speed Gust Speed Precip Events Conditions
12:51 AM 32.0 °F 25.6 °F 6.1 °F 34% 29.91 in 10.0 mi West 6.9 mph - N/A   Overcast
1:51 AM 32.0 °F 27.5 °F 7.0 °F 35% 29.90 in 10.0 mi West 4.6 mph - N/A   Overcast
2:51 AM 30.9 °F 27.5 °F 9.0 °F 40% 29.88 in 10.0 mi SW 3.5 mph - N/A   Overcast
3:51 AM 30.9 °F 26.2 °F 9.0 °F 40% 29.87 in 10.0 mi WSW 4.6 mph - N/A   Overcast
4:51 AM 33.1 °F 27.7 °F 10.9 °F 40% 29.86 in 10.0 mi West 5.8 mph - N/A   Overcast
5:51 AM 33.1 °F 28.7 °F 14.0 °F 46% 29.86 in 9.0 mi West 4.6 mph - 0.00 in Snow Light Snow
6:51 AM 33.1 °F 27.7 °F 16.0 °F 50% 29.85 in 9.0 mi South 5.8 mph - 0.00 in Snow Light Snow
7:51 AM 32.0 °F 24.8 °F 21.0 °F 64% 29.83 in 8.0 mi South 8.1 mph - 0.00 in Snow Light Snow
8:51 AM 32.0 °F 24.8 °F 25.0 °F 75% 29.84 in 9.0 mi SSW 8.1 mph - 0.00 in Snow Light Snow
9:51 AM 33.1 °F 25.5 °F 27.0 °F 78% 29.84 in 8.0 mi SSW 9.2 mph - 0.00 in Snow Light Snow
10:51 AM 35.1 °F 26.9 °F 27.0 °F 72% 29.83 in 9.0 mi WSW 11.5 mph - 0.00 in   Overcast
11:51 AM 37.0 °F 31.0 °F 27.0 °F 67% 29.81 in 10.0 mi WSW 8.1 mph - N/A   Overcast
12:51 PM 41.0 °F 35.2 °F 27.0 °F 57% 29.79 in 10.0 mi West 9.2 mph - N/A   Overcast
1:51 PM 43.0 °F 38.2 °F 27.0 °F 53% 29.77 in 10.0 mi WSW 8.1 mph - N/A   Overcast
2:51 PM 44.1 °F 39.0 °F 26.1 °F 49% 29.74 in 10.0 mi SW 9.2 mph - N/A   Mostly Cloudy
3:51 PM 43.0 °F - 26.1 °F 51% 29.73 in 10.0 mi Calm Calm - N/A   Mostly Cloudy
4:51 PM 44.1 °F 38.6 °F 25.0 °F 47% 29.72 in 10.0 mi WSW 10.4 mph - N/A   Mostly Cloudy
5:51 PM 44.1 °F 41.5 °F 25.0 °F 47% 29.71 in 10.0 mi WSW 4.6 mph - N/A   Mostly Cloudy
6:51 PM 39.0 °F 36.8 °F 28.9 °F 67% 29.71 in 9.0 mi South 3.5 mph - N/A   Mostly Cloudy
7:51 PM 37.9 °F 32.7 °F 27.0 °F 65% 29.72 in 10.0 mi SSW 6.9 mph - N/A   Scattered Clouds
8:51 PM 37.0 °F 32.4 °F 27.0 °F 67% 29.72 in 9.0 mi SW 5.8 mph - N/A   Mostly Cloudy
9:51 PM 36.0 °F 32.1 °F 28.0 °F 73% 29.72 in 8.0 mi SSE 4.6 mph - N/A   Mostly Cloudy
10:51 PM 36.0 °F 29.6 °F 28.9 °F 76% 29.68 in 9.0 mi SSE 8.1 mph - 0.00 in   Overcast
11:51 PM 36.0 °F 31.1 °F 28.9 °F 76% 29.67 in 8.0 mi South 5.8 mph - N/A   Overcast